TimeEDT,TemperatureF,Dew PointF,Humidity,Sea Level PressureIn,VisibilityMPH,Wind Direction,Wind SpeedMPH,Gust SpeedMPH,PrecipitationIn,Events,Conditions,WindDirDegrees,DateUTC
12:51 AM,52.0,44.1,74,30.13,10.0,Calm,Calm,-,N/A,,Clear,0,2013-09-15 04:51:00
1:51 AM,52.0,45.0,77,30.13,10.0,Calm,Calm,-,N/A,,Clear,0,2013-09-15 05:51:00
2:51 AM,48.0,44.1,86,30.14,10.0,Calm,Calm,-,N/A,,Clear,0,2013-09-15 06:51:00
3:51 AM,50.0,43.0,77,30.15,10.0,NNE,3.5,-,N/A,,Clear,30,2013-09-15 07:51:00
4:51 AM,48.9,43.0,80,30.16,10.0,Calm,Calm,-,N/A,,Clear,0,2013-09-15 08:51:00
5:51 AM,50.0,43.0,77,30.17,10.0,Calm,Calm,-,N/A,,Clear,0,2013-09-15 09:51:00
6:51 AM,48.0,44.1,86,30.18,10.0,Calm,Calm,-,N/A,,Clear,0,2013-09-15 10:51:00
7:51 AM,52.0,45.0,77,30.19,10.0,WNW,3.5,-,N/A,,Clear,290,2013-09-15 11:51:00
8:51 AM,55.9,45.0,67,30.21,10.0,WNW,4.6,-,N/A,,Clear,300,2013-09-15 12:51:00
9:51 AM,61.0,44.1,54,30.22,10.0,NW,4.6,-,N/A,,Clear,310,2013-09-15 13:51:00
10:51 AM,64.9,44.1,47,30.21,10.0,WSW,3.5,-,N/A,,Clear,250,2013-09-15 14:51:00
11:51 AM,66.0,44.1,45,30.19,10.0,WNW,5.8,-,N/A,,Clear,290,2013-09-15 15:51:00
12:51 PM,69.1,43.0,39,30.17,10.0,WNW,8.1,-,N/A,,Clear,290,2013-09-15 16:51:00
1:51 PM,71.1,42.1,35,30.15,10.0,SSW,3.5,-,N/A,,Clear,210,2013-09-15 17:51:00
2:51 PM,71.1,41.0,34,30.13,10.0,West,8.1,-,N/A,,Clear,270,2013-09-15 18:51:00
3:51 PM,73.0,43.0,34,30.11,10.0,WSW,8.1,-,N/A,,Clear,250,2013-09-15 19:51:00
4:51 PM,72.0,42.1,34,30.09,10.0,SW,5.8,-,0.00,,Clear,230,2013-09-15 20:51:00
5:51 PM,70.0,39.9,33,30.09,10.0,West,8.1,-,0.00,,Clear,280,2013-09-15 21:51:00
6:51 PM,66.9,44.1,44,30.08,10.0,West,3.5,-,N/A,,Clear,270,2013-09-15 22:51:00
7:51 PM,64.9,50.0,58,30.09,10.0,South,3.5,-,N/A,,Clear,170,2013-09-15 23:51:00
8:51 PM,63.0,52.0,67,30.09,10.0,Calm,Calm,-,N/A,,Clear,0,2013-09-16 00:51:00
9:51 PM,63.0,52.0,67,30.09,10.0,Calm,Calm,-,N/A,,Clear,0,2013-09-16 01:51:00
10:51 PM,62.1,51.1,67,30.09,10.0,South,3.5,-,N/A,,Clear,190,2013-09-16 02:51:00
11:51 PM,61.0,51.1,70,30.09,10.0,SSW,6.9,-,N/A,,Clear,200,2013-09-16 03:51:00